TimeIST,TemperatureF,Dew PointF,Humidity,Sea Level PressureIn,VisibilityMPH,Wind Direction,Wind SpeedMPH,Gust SpeedMPH,PrecipitationIn,Events,Conditions,WindDirDegrees,DateUTC
12:00 AM,62.6,59.0,88,29.80,6.2,SE,6.9,-,N/A,,Mostly Cloudy,130,2013-07-26 23:00:00
12:30 AM,62.6,59.0,88,29.80,6.2,ESE,9.2,-,N/A,,Mostly Cloudy,120,2013-07-26 23:30:00
1:00 AM,61,58,88,29.81,16,ESE,8.9,,,,Partly Cloudy,110,2013-07-27 00:00:00
1:00 AM,60.8,59.0,94,29.80,6.2,ESE,9.2,-,N/A,,Mostly Cloudy,110,2013-07-27 00:00:00
1:30 AM,60.8,57.2,88,29.77,6.2,ESE,9.2,-,N/A,,Mostly Cloudy,120,2013-07-27 00:30:00
2:00 AM,59.0,57.2,94,29.77,6.2,ESE,8.1,-,N/A,,Mostly Cloudy,120,2013-07-27 01:00:00
2:30 AM,59.0,57.2,94,29.77,6.2,ESE,6.9,-,N/A,,Mostly Cloudy,110,2013-07-27 01:30:00
3:00 AM,59.0,57.2,94,29.77,6.2,SE,5.8,-,N/A,,Scattered Clouds,130,2013-07-27 02:00:00
3:30 AM,59.0,57.2,94,29.77,6.2,ESE,9.2,-,N/A,,Mostly Cloudy,120,2013-07-27 02:30:00
4:00 AM,59.0,57.2,94,29.77,6.2,ESE,9.2,-,N/A,,Mostly Cloudy,120,2013-07-27 03:00:00
4:30 AM,59.0,57.2,94,29.74,6.2,ESE,9.2,-,N/A,,Mostly Cloudy,120,2013-07-27 03:30:00
5:00 AM,59.0,57.2,94,29.74,6.2,ESE,9.2,-,N/A,,Mostly Cloudy,120,2013-07-27 04:00:00
5:30 AM,59.0,57.2,94,29.74,6.2,ESE,8.1,-,N/A,,Scattered Clouds,110,2013-07-27 04:30:00
6:00 AM,59.0,57.2,94,29.74,6.2,ESE,9.2,-,N/A,,Partly Cloudy,110,2013-07-27 05:00:00
6:30 AM,59.0,57.2,94,29.74,6.2,ESE,9.2,-,N/A,,Partly Cloudy,110,2013-07-27 05:30:00
7:00 AM,59,57,91,29.75,10,ESE,8.9,,,,Scattered Clouds,110,2013-07-27 06:00:00
7:00 AM,59.0,57.2,94,29.74,6.2,ESE,8.1,-,N/A,,Partly Cloudy,110,2013-07-27 06:00:00
7:30 AM,59.0,57.2,94,29.74,6.2,East,6.9,-,N/A,,Partly Cloudy,100,2013-07-27 06:30:00
8:00 AM,59.0,57.2,94,29.74,6.2,ESE,8.1,-,N/A,,Partly Cloudy,110,2013-07-27 07:00:00
8:30 AM,62.6,57.2,82,29.74,6.2,ESE,10.4,-,N/A,,Partly Cloudy,110,2013-07-27 07:30:00
9:00 AM,64.4,59.0,83,29.71,6.2,ESE,11.5,-,N/A,,Scattered Clouds,110,2013-07-27 08:00:00
9:30 AM,64.4,57.2,77,29.71,6.2,SE,10.4,-,N/A,,Scattered Clouds,130,2013-07-27 08:30:00
10:00 AM,66.2,59.0,78,29.71,6.2,ESE,11.5,-,N/A,,Scattered Clouds,110,2013-07-27 09:00:00
10:30 AM,66.2,57.2,73,29.71,6.2,SE,11.5,-,N/A,,Scattered Clouds,130,2013-07-27 09:30:00
11:00 AM,66.2,57.2,73,29.68,6.2,SE,9.2,-,N/A,,Scattered Clouds,130,2013-07-27 10:00:00
11:30 AM,68.0,57.2,68,29.68,6.2,SSE,8.1,-,N/A,,Scattered Clouds,150,2013-07-27 10:30:00
12:00 PM,64.4,60.8,88,29.68,6.2,ESE,9.2,-,N/A,Rain,Light Rain Showers,120,2013-07-27 11:00:00
12:30 PM,66.2,60.8,83,29.68,6.2,SE,10.4,-,N/A,,Scattered Clouds,130,2013-07-27 11:30:00
1:00 PM,68,58,64,29.69,16,ESE,15.7,,,Rain,Light Rain Showers,120,2013-07-27 12:00:00
1:00 PM,68.0,59.0,73,29.68,6.2,ESE,16.1,-,N/A,,Scattered Clouds,120,2013-07-27 12:00:00
1:30 PM,68.0,57.2,68,29.68,6.2,ESE,15.0,-,N/A,,Mostly Cloudy,120,2013-07-27 12:30:00
2:00 PM,68.0,57.2,68,29.68,6.2,ESE,13.8,-,N/A,,Mostly Cloudy,110,2013-07-27 13:00:00
2:30 PM,66.2,59.0,78,-9999,6.2,ESE,13.8,-,N/A,Rain,Light Rain Showers,120,2013-07-27 13:30:00
3:00 PM,66.2,59.0,78,29.65,6.2,SE,15.0,-,N/A,,Scattered Clouds,130,2013-07-27 14:00:00
3:30 PM,68.0,55.4,64,29.65,6.2,ESE,12.7,-,N/A,,Scattered Clouds,120,2013-07-27 14:30:00
4:00 PM,66.2,59.0,78,29.65,6.2,SSE,11.5,-,N/A,,Mostly Cloudy,150,2013-07-27 15:00:00
4:30 PM,68.0,57.2,68,29.65,6.2,SE,10.4,-,N/A,,Mostly Cloudy,130,2013-07-27 15:30:00
5:00 PM,69.8,57.2,64,29.62,6.2,SE,15.0,-,N/A,,Mostly Cloudy,130,2013-07-27 16:00:00
5:30 PM,68.0,57.2,68,29.62,6.2,East,11.5,-,N/A,,Mostly Cloudy,100,2013-07-27 16:30:00
6:00 PM,68.0,57.2,68,29.62,6.2,ESE,11.5,-,N/A,,Mostly Cloudy,120,2013-07-27 17:00:00
6:30 PM,68.0,59.0,73,29.62,4.3,East,8.1,-,N/A,Rain-Thunderstorm,Thunderstorms and Rain,100,2013-07-27 17:30:00
7:00 PM,63,54,66,29.63,4,West,8.9,,,Thunderstorm,Thunderstorm,260,2013-07-27 18:00:00
7:00 PM,62.6,55.4,77,29.62,4.3,West,8.1,-,N/A,Rain-Thunderstorm,Thunderstorms and Rain,260,2013-07-27 18:00:00
7:30 PM,62.6,57.2,82,29.62,3.7,SSW,6.9,-,N/A,Thunderstorm,Thunderstorm,200,2013-07-27 18:30:00
8:00 PM,60.8,59.0,94,29.62,6.2,NNW,3.5,-,N/A,,Mostly Cloudy,330,2013-07-27 19:00:00
8:30 PM,60.8,59.0,94,29.62,6.2,NNE,3.5,-,N/A,,Mostly Cloudy,20,2013-07-27 19:30:00
9:00 PM,59.0,59.0,100,29.62,6.2,WNW,1.2,-,N/A,,Mostly Cloudy,290,2013-07-27 20:00:00
9:30 PM,60.8,57.2,88,29.62,6.2,ENE,2.3,-,N/A,,Partly Cloudy,70,2013-07-27 20:30:00
10:00 PM,60.8,59.0,94,29.62,6.2,East,4.6,-,N/A,,Scattered Clouds,80,2013-07-27 21:00:00
10:30 PM,60.8,59.0,94,29.62,6.2,East,2.3,-,N/A,,Mostly Cloudy,80,2013-07-27 21:30:00
11:00 PM,59.0,59.0,100,29.62,6.2,East,2.3,-,N/A,,Mostly Cloudy,90,2013-07-27 22:00:00
11:30 PM,59.0,59.0,100,29.59,6.2,East,2.3,-,N/A,,Mostly Cloudy,80,2013-07-27 22:30:00